Location: El Manguito
(10.2358°N, 67.3634°W)
Time: 23:33:27
(UTC+00:00)

Aurora 2 Rocket - Pass Details

Date: 14 December 2025
Orbit: 385 x 1539 km, 25.0° (Epoch: 23 January)

Event Time Altitude Azimuth Distance (km) Brightness Sun altitude
Exits shadow 07:27:54 20° 73° (ENE) 2,227 5.7 -44.3°
Drops below altitude 10° 07:29:36 10° 71° (ENE) 2,763 6.2 -44.0°
Sets 07:31:56 0° 69° (ENE) 3,549 6.9 -43.4°
